Regional Weather Roundup
Issued by NWS

Home | Current Version | Previous Version | Graphics & Text | Print | Product List | Glossary On
Versions: 1 2 3 4 5 6 7 8 9 10 11 12 13 14 15 16 17 18 19 20 21 22 23 24 25 26 27 28 29 30 31 32 33 34 35 36 37 38 39 40 41 42 43 44 45 46 47 48 49 50
000
ASUS43 KDTX 231001
RWRMI
MICHIGAN HOURLY REGIONAL WEATHER ROUNDUP
NATIONAL WEATHER SERVICE DETROIT/PONTIAC MI
500 AM EST THU NOV 23 2017

NOTE: "FAIR" INDICATES FEW OR NO CLOUDS BELOW 12,000 FEET WITH NO
SIGNIFICANT WEATHER AND/OR OBSTRUCTION TO VISIBILITY.

MIZ047>049-052>055-059>063-066>070-074>076-081>083-231100-
SOUTHEAST LOWER MICHIGAN

CITY           SKY/WX    TMP DP  RH WIND       PRES   REMARKS
ADRIAN         CLOUDY    28  23  81 SW6       30.13F WCI  22
ALMA           CLOUDY    31  25  77 SW6       30.06F WCI  25
ANN ARBOR      MOCLDY    27  23  85 S5        30.11F WCI  22
BAD AXE        CLOUDY    29  20  68 S8        30.07F WCI  21
CARO           CLOUDY    30  21  70 S6        30.07F WCI  24
DETROIT CITY   CLOUDY    30  21  69 SW8       30.13F WCI  22
DETROIT        CLOUDY    30  23  75 S7        30.13F WCI  23
FLINT          CLOUDY    30  21  69 SW8       30.09F WCI  22
GROSSE ILE     CLOUDY    31  23  71 SW5       30.13F WCI  26
HILLSDALE      CLOUDY    30  21  69 SW7       30.09F WCI  23
HOWELL         CLOUDY    29  23  78 SW3       30.09F

CITY           SKY/WX    TMP DP  RH WIND       PRES   REMARKS
JACKSON        CLOUDY    30  20  66 S9        30.09F WCI  22
LAMBERTVILLE   CLOUDY    32  23  70 SW5       30.14F WCI  27
LANSING        MOCLDY    30  21  69 S10       30.08F WCI  21
LAPEER         CLOUDY    30  21  69 SW8       30.09F WCI  22
MASON          CLOUDY    31  23  72 CALM      30.09F
MONROE         CLOUDY    31  23  72 SW6       30.13F WCI  25
MT. CLEMENS    MOCLDY    28  22  80 SW8       30.10F WCI  19
PONTIAC        PTCLDY    29  20  69 SW8       30.09F WCI  21
PORT HOPE        N/A     31  20  63 SW6G17    30.04F WCI  25
PORT HURON     CLOUDY    28  18  64 SW5       30.12F WCI  23
TRI CITIES     CLOUDY    31  24  75 S9        30.07F WCI  23
MIDLAND        CLOUDY    32  24  73 SW7       30.06F WCI  25
TROY           PTCLDY    31  21  66 SW6       30.13F WCI  26
SAGINAW HB     CLOUDY    32  23  69 S8        30.06F WCI  25
$$
MIZ043>046-050>051-056>058-064>065-071>073-077>080-231100-
SOUTHWEST LOWER MICHIGAN

CITY           SKY/WX    TMP DP  RH WIND       PRES   REMARKS
BATTLE CREEK   CLOUDY    30  19  63 SW8       30.09F WCI  22
BENTON HARBOR  CLOUDY    32  17  54 S8        30.09F WCI  25
BIG RAPIDS     CLOUDY    31  24  77 S3        30.01F
COLDWATER      CLOUDY    30  20  64 SW8       30.10F WCI  23
FREMONT        CLOUDY    33  24  68 SW6       30.03F WCI  28
HOLLAND        CLOUDY    36  24  62 SW10      30.06F WCI  28
GRAND RAPIDS   CLOUDY    31  23  72 S12       30.05F WCI  22
IONIA          MOCLDY    31  22  69 S8        30.05F WCI  23
KALAMAZOO      CLOUDY    30  17  58 SW8       30.09F WCI  22
LUDINGTON      CLOUDY    34  23  64 SW12      30.02S WCI  26
MARSHALL       CLOUDY    30  18  62 SW7       30.09F WCI  23
MOUNT PLEASANT CLOUDY    32  24  71 S6        30.03F WCI  26
MUSKEGON       CLOUDY    37  21  52 SW14      30.04F WCI  28
SOUTH HAVEN    CLOUDY    32  20  61 S8        30.07F WCI  25
$$
MIZ016>042-231100-
NORTHERN LOWER MICHIGAN

CITY           SKY/WX    TMP DP  RH WIND       PRES   REMARKS
ALPENA         CLEAR     27  21  78 S6        30.00F WCI  20
BEAVER ISLAND  CLOUDY    34  27  75 W15G24    29.94F WCI  24
BELLAIRE       CLOUDY    31  27  83 S3        29.99F
CADILLAC       CLOUDY    29  23  78 SW12      29.97F WCI  19
CHARLEVOIX     CLOUDY    34  26  73 SW14      29.99F WCI  24
FRANKFORT      CLOUDY    35  29  78 W13G18    30.00F WCI  26
GAYLORD        CLOUDY    25  20  81 SW10      29.95F WCI  15
GRAYLING       CLOUDY    27  22  80 S3        29.99F
HARBOR SPRINGS CLOUDY    31  25  79 S8        29.95F WCI  23
HOUGHTON LAKE  CLOUDY    29  23  78 SW8       30.00F WCI  21
MANISTEE       CLOUDY    33  26  75 SW8       30.01F WCI  26
OSCODA         CLOUDY    30  20  67 SW13      30.02F WCI  20
PELLSTON       CLOUDY    30  24  78 S5        29.95F WCI  25
ROGERS CITY    MOCLDY    27  21  78 S9        29.98F WCI  18
TRAVERSE CITY  CLOUDY    33  24  69 SW6       29.99F WCI  28
$$
MIZ007>008-015-231100-
EASTERN UPPER MICHIGAN

CITY           SKY/WX    TMP DP  RH WIND       PRES   REMARKS
KINROSS        CLOUDY    28  23  81 NW5       29.92F WCI  23
MACKINAC ISLAN CLOUDY    35  23  62 W16G24    29.92F WCI  25
NEWBERRY       CLOUDY    26  18  73 SW8       29.92S WCI  17
S. S. MARIE    CLOUDY    30  22  72 W7        29.91F WCI  23
MUNISING         N/A     27  19  72 SW7       29.93F WCI  19
$$
MIZ004>006-011>014-085-231100-
CENTRAL UPPER MICHIGAN

CITY           SKY/WX    TMP DP  RH WIND       PRES   REMARKS
MANISTIQUE     CLOUDY    28  12  51 W6        29.95R WCI  22
ESCANABA       CLOUDY   N/A N/A N/A SW7       29.96F
MENOMINEE      CLOUDY    29  21  72 SW5       29.99F WCI  24
SAWYER-GWINN   CLOUDY    25  18  74 SW8       29.91S WCI  17
$$
MIZ001>003-009>011-084-231100-
WESTERN UPPER MICHIGAN

CITY           SKY/WX    TMP DP  RH WIND       PRES   REMARKS
IRON MOUNTAIN  CLOUDY    27  18  69 SW3       29.91F
HOUGHTON       CLOUDY    27  21  78 W13       29.86F WCI  16
COPPER HARBOR    N/A     31  25  78 VRB6      29.87F WCI  25
IRONWOOD       CLOUDY    25  18  74 SW6       29.91F WCI  18
$$

ABBREVIATIONS USED IN REMARKS
   TC - TEMPERATURE IN CELSIUS
  WCI - WIND CHILL INDEX
   HX - HEAT INDEX
  VSB - VISIBILITY





USA.gov is the U.S. government's official web portal to all federal, state and local government web resources and services.